RNX YMND-YRYL

Flight info

Callsign RNX
Flight time 1h 2m
Altitude 6500
Route YMND DCT 323603S1511132E DCT 322217S1505847E DCT 323126S1502107E DCT YRYL
Aircraft C172/L-S/L

Departure

Time 2026-05-08 04:53
Airport Maitland Airport (YMND)

Arrival

Time 2026-05-08 05:56
Airport Rylstone Aerodrome (YRYL)
Time Latitude Longitude Altitude Speed Heading
2026-05-08 04:47 -32.70455 151.48905 88 ft 0 kts 277°
2026-05-08 04:48 -32.70454 151.48898 88 ft 3 kts 278°
2026-05-08 04:48 -32.70434 151.48873 83 ft 6 kts 358°
2026-05-08 04:49 -32.70403 151.48890 84 ft 8 kts 62°
2026-05-08 04:49 -32.70349 151.48992 85 ft 16 kts 54°
2026-05-08 04:49 -32.70295 151.49088 84 ft 11 kts 57°
2026-05-08 04:49 -32.70257 151.49157 87 ft 9 kts 58°
2026-05-08 04:50 -32.70221 151.49219 88 ft 9 kts 58°
2026-05-08 04:50 -32.70185 151.49283 85 ft 10 kts 55°
2026-05-08 04:50 -32.70167 151.49382 86 ft 14 kts 93°
2026-05-08 04:50 -32.70172 151.49490 87 ft 12 kts 94°
2026-05-08 04:51 -32.70176 151.49590 86 ft 13 kts 93°
2026-05-08 04:51 -32.70182 151.49716 84 ft 15 kts 98°
2026-05-08 04:51 -32.70186 151.49807 85 ft 9 kts 93°
2026-05-08 04:51 -32.70188 151.49866 85 ft 6 kts 95°
2026-05-08 04:52 -32.70178 151.49908 89 ft 5 kts
2026-05-08 04:52 -32.70154 151.49908 87 ft 1 kts 274°
2026-05-08 04:52 -32.70154 151.49907 86 ft 0 kts 275°
2026-05-08 04:52 -32.70146 151.49729 84 ft 47 kts 272°
2026-05-08 04:53 -32.70122 151.49211 165 ft 70 kts 274°
2026-05-08 04:53 -32.70088 151.48625 370 ft 72 kts 272°
2026-05-08 04:53 -32.70071 151.48034 543 ft 70 kts 273°
2026-05-08 04:53 -32.69960 151.47467 705 ft 66 kts 282°
2026-05-08 04:54 -32.69809 151.46947 950 ft 66 kts 287°
2026-05-08 04:54 -32.69627 151.46442 1195 ft 61 kts 283°
2026-05-08 04:54 -32.69464 151.45991 1460 ft 63 kts 278°
2026-05-08 04:54 -32.69344 151.45429 1534 ft 78 kts 277°
2026-05-08 04:55 -32.69235 151.44895 1882 ft 57 kts 275°
2026-05-08 04:55 -32.69078 151.44388 1946 ft 74 kts 280°
2026-05-08 04:55 -32.68889 151.43817 2187 ft 71 kts 283°
2026-05-08 04:55 -32.68711 151.43266 2280 ft 71 kts 266°
2026-05-08 04:56 -32.68503 151.42718 2510 ft 66 kts 282°
2026-05-08 04:56 -32.68296 151.42193 2657 ft 73 kts 284°
2026-05-08 04:56 -32.68076 151.41676 2898 ft 69 kts 285°
2026-05-08 04:56 -32.67842 151.41181 3121 ft 68 kts 284°
2026-05-08 04:57 -32.67652 151.40668 3299 ft 71 kts 283°
2026-05-08 04:57 -32.67463 151.40155 3473 ft 68 kts 283°
2026-05-08 04:57 -32.67253 151.39623 3682 ft 67 kts 283°
2026-05-08 04:57 -32.67044 151.39130 3836 ft 72 kts 284°
2026-05-08 04:58 -32.66824 151.38615 4098 ft 65 kts 284°
2026-05-08 04:58 -32.66624 151.38112 4250 ft 73 kts 286°
2026-05-08 04:58 -32.66385 151.37608 4489 ft 68 kts 286°
2026-05-08 04:58 -32.66105 151.37011 4438 ft 92 kts 290°
2026-05-08 04:59 -32.65787 151.36366 4428 ft 88 kts 289°
2026-05-08 04:59 -32.65462 151.35761 4474 ft 88 kts 294°
2026-05-08 04:59 -32.65102 151.35161 4442 ft 92 kts 293°
2026-05-08 04:59 -32.64740 151.34528 4435 ft 91 kts 291°
2026-05-08 05:00 -32.64456 151.33882 4457 ft 87 kts 285°
2026-05-08 05:00 -32.64219 151.33245 4466 ft 85 kts 283°
2026-05-08 05:00 -32.63995 151.32605 4465 ft 83 kts 283°
2026-05-08 05:00 -32.63780 151.31971 4475 ft 83 kts 282°
2026-05-08 05:01 -32.63569 151.31338 4483 ft 82 kts 282°
2026-05-08 05:01 -32.63360 151.30701 4477 ft 83 kts 282°
2026-05-08 05:01 -32.63151 151.30066 4470 ft 82 kts 282°
2026-05-08 05:01 -32.62944 151.29445 4471 ft 80 kts 282°
2026-05-08 05:02 -32.62739 151.28832 4495 ft 81 kts 282°
2026-05-08 05:02 -32.62532 151.28201 4494 ft 84 kts 282°
2026-05-08 05:02 -32.62321 151.27554 4482 ft 84 kts 282°
2026-05-08 05:02 -32.62109 151.26915 4480 ft 83 kts 282°
2026-05-08 05:03 -32.61903 151.26287 4495 ft 84 kts 282°
2026-05-08 05:03 -32.61690 151.25637 4494 ft 85 kts 282°
2026-05-08 05:03 -32.61476 151.24979 4495 ft 86 kts 282°
2026-05-08 05:03 -32.61258 151.24313 4490 ft 87 kts 282°
2026-05-08 05:04 -32.61049 151.23672 4484 ft 86 kts 282°
2026-05-08 05:04 -32.60833 151.23010 4487 ft 86 kts 282°
2026-05-08 05:04 -32.60620 151.22343 4495 ft 87 kts 283°
2026-05-08 05:04 -32.60407 151.21685 4486 ft 86 kts 282°
2026-05-08 05:05 -32.60073 151.21096 4494 ft 95 kts 309°
2026-05-08 05:05 -32.59511 151.20701 4647 ft 94 kts 315°
2026-05-08 05:05 -32.58929 151.20290 4737 ft 99 kts 314°
2026-05-08 05:05 -32.58350 151.19849 4875 ft 97 kts 313°
2026-05-08 05:06 -32.57804 151.19400 5027 ft 94 kts 309°
2026-05-08 05:06 -32.57268 151.18938 5136 ft 96 kts 310°
2026-05-08 05:06 -32.56737 151.18473 5242 ft 97 kts 310°
2026-05-08 05:06 -32.56172 151.18037 5382 ft 101 kts 316°
2026-05-08 05:07 -32.55582 151.17628 5496 ft 99 kts 315°
2026-05-08 05:07 -32.55069 151.17161 5635 ft 94 kts 303°
2026-05-08 05:07 -32.54612 151.16600 5744 ft 93 kts 302°
2026-05-08 05:07 -32.54200 151.16046 5902 ft 90 kts 297°
2026-05-08 05:08 -32.53809 151.15474 6053 ft 87 kts 293°
2026-05-08 05:08 -32.53451 151.14901 6237 ft 83 kts 293°
2026-05-08 05:08 -32.53101 151.14331 6346 ft 88 kts 292°
2026-05-08 05:08 -32.52733 151.13733 6451 ft 93 kts 296°
2026-05-08 05:09 -32.52327 151.13139 6573 ft 94 kts 294°
2026-05-08 05:09 -32.51929 151.12508 6582 ft 98 kts 295°
2026-05-08 05:09 -32.51536 151.11875 6590 ft 94 kts 294°
2026-05-08 05:09 -32.51149 151.11254 6596 ft 94 kts 294°
2026-05-08 05:10 -32.50758 151.10634 6605 ft 95 kts 294°
2026-05-08 05:10 -32.49962 151.09372 6607 ft 96 kts 294°
2026-05-08 05:10 -32.49553 151.08716 6522 ft 102 kts 295°
2026-05-08 05:11 -32.49128 151.08062 6531 ft 98 kts 295°
2026-05-08 05:11 -32.48723 151.07432 6552 ft 95 kts 294°
2026-05-08 05:11 -32.48332 151.06828 6578 ft 93 kts 294°
2026-05-08 05:11 -32.47940 151.06218 6592 ft 93 kts 294°
2026-05-08 05:12 -32.47547 151.05600 6598 ft 94 kts 294°
2026-05-08 05:12 -32.47155 151.04980 6595 ft 94 kts 295°
2026-05-08 05:12 -32.46764 151.04358 6600 ft 95 kts 294°
2026-05-08 05:12 -32.46373 151.03744 6582 ft 92 kts 294°
2026-05-08 05:13 -32.45989 151.03154 6584 ft 90 kts 294°
2026-05-08 05:13 -32.45607 151.02573 6600 ft 90 kts 295°
2026-05-08 05:13 -32.45224 151.01992 6608 ft 91 kts 294°
2026-05-08 05:13 -32.44831 151.01395 6604 ft 92 kts 295°
2026-05-08 05:14 -32.44438 151.00794 6616 ft 93 kts 295°
2026-05-08 05:14 -32.44043 151.00179 6624 ft 95 kts 294°
2026-05-08 05:14 -32.43635 150.99548 6621 ft 97 kts 295°
2026-05-08 05:14 -32.43223 150.98909 6623 ft 98 kts 295°
2026-05-08 05:15 -32.42948 150.98482 6616 ft 99 kts 295°
2026-05-08 05:15 -32.42632 150.98001 6600 ft 98 kts 295°
2026-05-08 05:15 -32.42220 150.97379 6581 ft 99 kts 299°
2026-05-08 05:16 -32.41739 150.96757 6483 ft 105 kts 301°
2026-05-08 05:16 -32.41254 150.96138 6497 ft 100 kts 301°
2026-05-08 05:16 -32.40778 150.95537 6498 ft 98 kts 300°
2026-05-08 05:16 -32.40304 150.94952 6503 ft 99 kts 303°
2026-05-08 05:17 -32.39986 150.94322 6494 ft 81 kts 251°
2026-05-08 05:17 -32.40170 150.93696 6512 ft 82 kts 247°
2026-05-08 05:17 -32.40376 150.93042 6508 ft 86 kts 247°
2026-05-08 05:17 -32.40595 150.92371 6511 ft 88 kts 247°
2026-05-08 05:18 -32.40816 150.91702 6503 ft 88 kts 247°
2026-05-08 05:18 -32.41038 150.91022 6517 ft 89 kts 246°
2026-05-08 05:18 -32.41258 150.90333 6516 ft 90 kts 247°
2026-05-08 05:18 -32.41479 150.89639 6519 ft 90 kts 247°
2026-05-08 05:19 -32.41697 150.88955 6508 ft 87 kts 247°
2026-05-08 05:19 -32.41901 150.88293 6500 ft 86 kts 246°
2026-05-08 05:19 -32.42104 150.87619 6516 ft 89 kts 247°
2026-05-08 05:19 -32.42318 150.86905 6522 ft 94 kts 247°
2026-05-08 05:20 -32.42542 150.86165 6516 ft 96 kts 247°
2026-05-08 05:20 -32.42764 150.85429 6517 ft 96 kts 247°
2026-05-08 05:20 -32.42989 150.84681 6517 ft 97 kts 247°
2026-05-08 05:20 -32.43212 150.83927 6516 ft 97 kts 247°
2026-05-08 05:21 -32.43435 150.83172 6508 ft 97 kts 247°
2026-05-08 05:21 -32.43652 150.82418 6511 ft 97 kts 248°
2026-05-08 05:21 -32.43858 150.81663 6508 ft 96 kts 248°
2026-05-08 05:21 -32.44060 150.80912 6516 ft 96 kts 248°
2026-05-08 05:22 -32.44265 150.80156 6522 ft 97 kts 248°
2026-05-08 05:22 -32.44466 150.79391 6518 ft 98 kts 248°
2026-05-08 05:22 -32.44666 150.78625 6520 ft 97 kts 248°
2026-05-08 05:22 -32.44860 150.77870 6520 ft 97 kts 248°
2026-05-08 05:23 -32.45054 150.77108 6513 ft 97 kts 248°
2026-05-08 05:23 -32.45248 150.76345 6508 ft 97 kts 248°
2026-05-08 05:23 -32.45444 150.75587 6507 ft 96 kts 248°
2026-05-08 05:23 -32.45635 150.74833 6511 ft 96 kts 248°
2026-05-08 05:24 -32.45825 150.74083 6512 ft 94 kts 249°
2026-05-08 05:24 -32.46013 150.73341 6516 ft 94 kts 248°
2026-05-08 05:24 -32.46192 150.72597 6525 ft 94 kts 248°
2026-05-08 05:24 -32.46372 150.71843 6535 ft 96 kts 249°
2026-05-08 05:25 -32.46552 150.71075 6527 ft 97 kts 249°
2026-05-08 05:25 -32.46728 150.70315 6516 ft 97 kts 249°
2026-05-08 05:25 -32.46911 150.69547 6521 ft 97 kts 249°
2026-05-08 05:25 -32.47091 150.68777 6523 ft 97 kts 249°
2026-05-08 05:26 -32.47270 150.68008 6527 ft 97 kts 249°
2026-05-08 05:26 -32.47451 150.67232 6530 ft 98 kts 249°
2026-05-08 05:26 -32.47629 150.66450 6527 ft 98 kts 249°
2026-05-08 05:26 -32.47808 150.65666 6528 ft 99 kts 249°
2026-05-08 05:27 -32.47985 150.64878 6527 ft 99 kts 249°
2026-05-08 05:27 -32.48159 150.64100 6525 ft 99 kts 249°
2026-05-08 05:27 -32.48334 150.63314 6520 ft 98 kts 249°
2026-05-08 05:27 -32.48506 150.62534 6524 ft 98 kts 249°
2026-05-08 05:28 -32.48673 150.61754 6523 ft 97 kts 249°
2026-05-08 05:28 -32.48841 150.60970 6536 ft 99 kts 249°
2026-05-08 05:28 -32.49011 150.60169 6549 ft 101 kts 249°
2026-05-08 05:28 -32.49183 150.59351 6538 ft 103 kts 249°
2026-05-08 05:29 -32.49359 150.58529 6528 ft 103 kts 249°
2026-05-08 05:29 -32.49535 150.57713 6519 ft 102 kts 249°
2026-05-08 05:29 -32.49705 150.56908 6526 ft 102 kts 249°
2026-05-08 05:29 -32.49882 150.56092 6518 ft 102 kts 250°
2026-05-08 05:30 -32.50051 150.55283 6518 ft 100 kts 249°
2026-05-08 05:30 -32.50211 150.54483 6514 ft 99 kts 249°
2026-05-08 05:30 -32.50367 150.53690 6535 ft 99 kts 250°
2026-05-08 05:30 -32.50522 150.52887 6543 ft 101 kts 250°
2026-05-08 05:31 -32.50684 150.52064 6549 ft 103 kts 249°
2026-05-08 05:31 -32.50849 150.51226 6543 ft 105 kts 249°
2026-05-08 05:31 -32.51015 150.50376 6535 ft 106 kts 250°
2026-05-08 05:31 -32.51177 150.49538 6516 ft 105 kts 250°
2026-05-08 05:32 -32.51334 150.48710 6514 ft 102 kts 250°
2026-05-08 05:32 -32.51488 150.47896 6518 ft 101 kts 250°
2026-05-08 05:32 -32.51630 150.47083 6520 ft 100 kts 249°
2026-05-08 05:32 -32.51769 150.46279 6535 ft 100 kts 250°
2026-05-08 05:33 -32.51913 150.45470 6543 ft 101 kts 250°
2026-05-08 05:33 -32.52054 150.44658 6510 ft 99 kts 250°
2026-05-08 05:33 -32.52183 150.43873 6508 ft 95 kts 250°
2026-05-08 05:33 -32.52311 150.43114 6527 ft 94 kts 250°
2026-05-08 05:34 -32.52441 150.42367 6533 ft 94 kts 250°
2026-05-08 05:34 -32.52578 150.41628 6514 ft 90 kts 250°
2026-05-08 05:34 -32.52699 150.40886 6559 ft 94 kts 250°
2026-05-08 05:34 -32.52832 150.40104 6596 ft 100 kts 250°
2026-05-08 05:35 -32.52966 150.39280 6601 ft 104 kts 251°
2026-05-08 05:35 -32.53097 150.38428 6575 ft 106 kts 250°
2026-05-08 05:35 -32.53228 150.37583 6549 ft 103 kts 250°
2026-05-08 05:35 -32.53360 150.36747 6544 ft 103 kts 250°
2026-05-08 05:36 -32.53495 150.35912 6538 ft 103 kts 250°
2026-05-08 05:36 -32.53628 150.35095 6526 ft 102 kts 250°
2026-05-08 05:36 -32.53758 150.34276 6529 ft 101 kts 250°
2026-05-08 05:36 -32.53884 150.33467 6519 ft 99 kts 250°
2026-05-08 05:37 -32.54084 150.32717 6540 ft 94 kts 238°
2026-05-08 05:37 -32.54402 150.32049 6492 ft 92 kts 233°
2026-05-08 05:37 -32.54728 150.31424 6484 ft 87 kts 232°
2026-05-08 05:37 -32.55055 150.30808 6541 ft 91 kts 232°
2026-05-08 05:38 -32.55413 150.30164 6550 ft 96 kts 231°
2026-05-08 05:38 -32.55806 150.29512 6544 ft 98 kts 228°
2026-05-08 05:38 -32.56237 150.28883 6536 ft 98 kts 225°
2026-05-08 05:38 -32.56680 150.28296 6544 ft 93 kts 224°
2026-05-08 05:39 -32.57100 150.27750 6537 ft 89 kts 223°
2026-05-08 05:39 -32.57510 150.27219 6544 ft 86 kts 223°
2026-05-08 05:39 -32.57900 150.26708 6504 ft 80 kts 223°
2026-05-08 05:39 -32.58272 150.26238 6470 ft 75 kts 223°
2026-05-08 05:40 -32.58623 150.25819 6495 ft 71 kts 222°
2026-05-08 05:40 -32.58969 150.25387 6516 ft 74 kts 225°
2026-05-08 05:40 -32.59330 150.24937 6534 ft 77 kts 222°
2026-05-08 05:40 -32.59695 150.24456 6549 ft 80 kts 223°
2026-05-08 05:41 -32.60073 150.23965 6543 ft 81 kts 223°
2026-05-08 05:41 -32.60449 150.23471 6565 ft 83 kts 223°
2026-05-08 05:41 -32.60856 150.22965 6561 ft 86 kts 224°
2026-05-08 05:41 -32.61273 150.22454 6557 ft 87 kts 223°
2026-05-08 05:42 -32.61689 150.21932 6542 ft 86 kts 222°
2026-05-08 05:42 -32.62090 150.21436 6522 ft 81 kts 223°
2026-05-08 05:42 -32.62467 150.20938 6556 ft 82 kts 223°
2026-05-08 05:42 -32.62855 150.20434 6554 ft 83 kts 223°
2026-05-08 05:43 -32.63251 150.19918 6575 ft 87 kts 223°
2026-05-08 05:43 -32.63666 150.19387 6554 ft 88 kts 222°
2026-05-08 05:43 -32.64067 150.18852 6562 ft 88 kts 223°
2026-05-08 05:43 -32.64470 150.18304 6561 ft 88 kts 223°
2026-05-08 05:44 -32.64871 150.17759 6546 ft 86 kts 224°
2026-05-08 05:44 -32.65262 150.17223 6535 ft 85 kts 223°
2026-05-08 05:44 -32.65637 150.16675 6586 ft 87 kts 225°
2026-05-08 05:44 -32.66022 150.16102 6598 ft 91 kts 225°
2026-05-08 05:45 -32.66419 150.15505 6579 ft 93 kts 225°
2026-05-08 05:45 -32.66828 150.14888 6433 ft 95 kts 226°
2026-05-08 05:45 -32.67240 150.14270 6325 ft 96 kts 226°
2026-05-08 05:45 -32.67651 150.13665 6195 ft 95 kts 226°
2026-05-08 05:46 -32.68069 150.13058 6062 ft 95 kts 226°
2026-05-08 05:46 -32.68497 150.12451 5900 ft 97 kts 226°
2026-05-08 05:46 -32.68924 150.11842 5725 ft 95 kts 226°
2026-05-08 05:46 -32.69359 150.11239 5568 ft 97 kts 226°
2026-05-08 05:47 -32.69796 150.10626 5391 ft 97 kts 226°
2026-05-08 05:47 -32.70232 150.10017 5196 ft 96 kts 226°
2026-05-08 05:47 -32.70659 150.09422 5009 ft 94 kts 226°
2026-05-08 05:47 -32.71090 150.08844 4815 ft 94 kts 226°
2026-05-08 05:48 -32.71523 150.08278 4711 ft 92 kts 225°
2026-05-08 05:48 -32.71945 150.07733 4655 ft 89 kts 226°
2026-05-08 05:48 -32.72361 150.07203 4572 ft 86 kts 225°
2026-05-08 05:48 -32.72769 150.06654 4428 ft 91 kts 225°
2026-05-08 05:49 -32.73186 150.06072 4233 ft 92 kts 227°
2026-05-08 05:49 -32.73596 150.05550 4274 ft 82 kts 223°
2026-05-08 05:49 -32.74005 150.05072 4169 ft 84 kts 223°
2026-05-08 05:49 -32.74439 150.04547 4044 ft 93 kts 225°
2026-05-08 05:50 -32.74809 150.03895 3875 ft 95 kts 238°
2026-05-08 05:50 -32.75103 150.03230 3764 ft 88 kts 241°
2026-05-08 05:50 -32.75401 150.02531 3631 ft 99 kts 239°
2026-05-08 05:50 -32.75699 150.01798 3605 ft 98 kts 241°
2026-05-08 05:51 -32.75990 150.01071 3531 ft 98 kts 239°
2026-05-08 05:51 -32.76287 150.00363 3591 ft 92 kts 240°
2026-05-08 05:51 -32.76560 149.99707 3710 ft 89 kts 237°
2026-05-08 05:51 -32.76925 149.99153 3814 ft 82 kts 205°
2026-05-08 05:52 -32.77180 149.98685 3698 ft 96 kts 278°
2026-05-08 05:52 -32.76751 149.98026 3502 ft 97 kts 295°
2026-05-08 05:52 -32.76908 149.97466 3418 ft 89 kts 192°
2026-05-08 05:52 -32.77384 149.98013 3384 ft 125 kts 108°
2026-05-08 05:53 -32.77430 149.99068 3154 ft 124 kts 103°
2026-05-08 05:53 -32.77505 150.00059 3141 ft 120 kts 105°
2026-05-08 05:53 -32.77586 150.01033 3137 ft 120 kts 103°
2026-05-08 05:53 -32.77116 150.01836 3183 ft 127 kts 15°
2026-05-08 05:54 -32.76256 150.01979 3169 ft 125 kts 358°
2026-05-08 05:54 -32.75452 150.01922 3205 ft 108 kts 317°
2026-05-08 05:54 -32.75199 150.01283 2989 ft 85 kts 259°
2026-05-08 05:54 -32.75228 150.00601 2741 ft 78 kts 260°
2026-05-08 05:55 -32.75246 150.00011 2693 ft 68 kts 256°
2026-05-08 05:55 -32.75283 149.99493 2666 ft 62 kts 248°
2026-05-08 05:55 -32.75597 149.99148 2401 ft 69 kts 192°
2026-05-08 05:55 -32.76042 149.99186 2169 ft 64 kts 181°
2026-05-08 05:56 -32.76474 149.99249 2006 ft 62 kts 175°
2026-05-08 05:56 -32.76793 149.99287 1994 ft 30 kts 174°
2026-05-08 05:56 -32.76904 149.99304 1995 ft 6 kts 177°
2026-05-08 05:56 -32.76943 149.99309 1996 ft 10 kts 177°
2026-05-08 05:57 -32.77030 149.99324 1997 ft 10 kts 174°
2026-05-08 05:57 -32.77087 149.99385 1997 ft 21 kts 101°
2026-05-08 05:57 -32.77115 149.99577 1994 ft 19 kts 95°
2026-05-08 05:57 -32.77084 149.99619 1994 ft 4 kts 279°
2026-05-08 05:58 -32.77065 149.99552 1995 ft 13 kts 286°
2026-05-08 05:58 -32.77044 149.99475 1996 ft 8 kts 285°
2026-05-08 05:58 -32.77036 149.99423 1996 ft 4 kts 244°
2026-05-08 05:58 -32.77044 149.99411 1996 ft 0 kts 270°
2026-05-08 05:59 -32.77041 149.99405 1996 ft 0 kts 336°
2026-05-08 05:59 -32.77031 149.99413 1994 ft 5 kts 40°
2026-05-08 05:59 -32.77001 149.99428 1996 ft 1 kts 93°
2026-05-08 06:00 -32.77004 149.99433 1996 ft 0 kts 192°